Weather History for Denison, IA

Change the Weather History Date:

Thursday, October 3, 2013

  Actual Average Record
Temperature  
Mean Temperature 68 °F -  
Max Temperature 77 °F 67 °F 91 °F (1997)
Min Temperature 60 °F 45 °F 32 °F (1996)
Cooling Degree Days 4    
Growing Degree Days 18 (Base 50)    
Moisture  
Dew Point 60 °F    
Average Humidity 80    
Maximum Humidity 100    
Minimum Humidity 54    
Precipitation  
Precipitation 0.07 in - - ()
Sea Level Pressure  
Sea Level Pressure 29.79 in    
Wind  
Wind Speed 4 mph (NE)    
Max Wind Speed 18 mph    
Max Gust Speed 29 mph    
Visibility 10 miles    
Events Rain    
Averages and records for this station are not official NWS values.
T = Trace of Precipitation, MM = Missing Value Source: NWS Daily Summary

Daily Weather History Graph

Daily Weather History Graph

Search for Another Location

Airport:

Trip Planner

Search our weather history database for the weather conditions in past years. The results will help you decide how hot, cold, wet, or windy it might be!

Date:

Astronomy

Oct. 03, 2013 Rise Set
Actual Time 7:20 AM CDT 6:59 PM CDT
Civil Twilight 6:53 AM CDT 7:27 PM CDT
Nautical Twilight 6:20 AM CDT 7:59 PM CDT
Astronomical Twilight 5:48 AM CDT 8:31 PM CDT
Moon 5:54 AM CDT (10/3) 6:08 PM CDT (10/3)
Length of Visible Light 12h 33m
Length of Day
11h 38m
Waning Crescent, 2% of the Moon is Illuminated
Oct 3
Waning Crescent
Oct 4
New
Oct 11
First Quarter
Oct 18
Full
Oct 26
Last Quarter

Hourly Weather History & Observations

Time (CDT) Temp. Dew Point Humidity Pressure Visibility Wind Dir Wind Speed Gust Speed Precip Events Conditions
12:15 AM 69.8 °F 62.6 °F 78% 29.84 in 10.0 mi SSW 3.5 mph - N/A   Overcast
12:35 AM 68.0 °F 62.6 °F 83% 29.83 in 10.0 mi Calm Calm - N/A   Overcast
12:55 AM 68.0 °F 62.6 °F 83% 29.82 in 10.0 mi WSW 4.6 mph - N/A   Mostly Cloudy
1:15 AM 68.0 °F 62.6 °F 83% 29.83 in 10.0 mi Calm Calm - N/A   Overcast
1:35 AM 66.2 °F 62.6 °F 88% 29.82 in 7.0 mi Calm Calm - N/A Rain Light Rain
1:55 AM 66.2 °F 62.6 °F 88% 29.83 in 10.0 mi Calm Calm - 0.01 in   Mostly Cloudy
2:15 AM 64.4 °F 62.6 °F 94% 29.83 in 9.0 mi West 3.5 mph - N/A   Mostly Cloudy
2:35 AM 64.4 °F 59.0 °F 83% 29.81 in 10.0 mi NW 5.8 mph - N/A   Mostly Cloudy
2:55 AM 62.6 °F 59.0 °F 88% 29.82 in 10.0 mi NNW 4.6 mph - N/A   Mostly Cloudy
3:15 AM 62.6 °F 59.0 °F 88% 29.83 in 10.0 mi WNW 4.6 mph - N/A   Mostly Cloudy
3:35 AM 62.6 °F 59.0 °F 88% 29.84 in - SW 4.6 mph - N/A   Overcast
3:55 AM 62.6 °F 59.0 °F 88% 29.83 in 10.0 mi Calm Calm - N/A   Overcast
4:15 AM 62.6 °F 59.0 °F 88% 29.81 in 10.0 mi West 4.6 mph - N/A   Overcast
4:35 AM 62.6 °F 59.0 °F 88% 29.81 in 10.0 mi Calm Calm - N/A   Mostly Cloudy
4:55 AM 60.8 °F 60.8 °F 100% 29.81 in 10.0 mi Calm Calm - N/A   Mostly Cloudy
5:15 AM 60.8 °F 60.8 °F 100% 29.81 in 10.0 mi Calm Calm - N/A Rain Light Rain
5:35 AM 60.8 °F 60.8 °F 100% 29.81 in 7.0 mi SSE 3.5 mph - N/A Rain Light Rain
5:55 AM 60.8 °F 60.8 °F 100% 29.81 in 8.0 mi SSE 9.2 mph - 0.04 in Rain Light Rain
6:15 AM 60.8 °F 60.8 °F 100% 29.78 in 7.0 mi ESE 9.2 mph - N/A   Mostly Cloudy
6:35 AM 60.8 °F 60.8 °F 100% 29.70 in 10.0 mi ESE 18.4 mph 28.8 mph N/A   Overcast
6:55 AM 62.6 °F 59.0 °F 88% 29.80 in 10.0 mi WNW 8.1 mph 16.1 mph 0.02 in   Overcast
7:15 AM 62.6 °F 60.8 °F 94% 29.81 in 10.0 mi Calm Calm - N/A   Scattered Clouds
7:35 AM 60.8 °F 59.0 °F 94% 29.81 in 10.0 mi ESE 5.8 mph - N/A   Clear
7:55 AM 60.8 °F 59.0 °F 94% 29.81 in 10.0 mi Calm Calm - N/A   Clear
8:15 AM 60.8 °F 60.8 °F 100% 29.82 in 10.0 mi Calm Calm - N/A   Partly Cloudy
8:35 AM 60.8 °F 60.8 °F 100% 29.81 in 10.0 mi Calm Calm - N/A   Clear
8:55 AM 60.8 °F 60.8 °F 100% 29.81 in 10.0 mi Calm Calm - N/A   Clear
9:15 AM 62.6 °F 60.8 °F 94% 29.80 in 10.0 mi Calm Calm - N/A   Clear
9:35 AM 62.6 °F 60.8 °F 94% 29.80 in 10.0 mi Calm Calm - N/A   Clear
9:55 AM 64.4 °F 60.8 °F 88% 29.79 in 10.0 mi NE 5.8 mph - N/A   Clear
10:15 AM 64.4 °F 62.6 °F 94% 29.78 in 10.0 mi ENE 4.6 mph - N/A   Clear
10:35 AM 66.2 °F 60.8 °F 83% 29.79 in 10.0 mi ENE 5.8 mph - N/A   Clear
10:55 AM 66.2 °F 62.6 °F 88% 29.78 in 10.0 mi NE 5.8 mph - N/A   Clear
11:15 AM 68.0 °F 62.6 °F 83% 29.79 in 10.0 mi ENE 6.9 mph - N/A   Clear
11:35 AM 68.0 °F 62.6 °F 83% 29.79 in 10.0 mi East 4.6 mph - N/A   Clear
11:55 AM 69.8 °F 60.8 °F 73% 29.80 in 10.0 mi Variable 4.6 mph - N/A   Clear
12:15 PM 71.6 °F 60.8 °F 69% 29.80 in 10.0 mi Calm Calm - N/A   Scattered Clouds
12:35 PM 71.6 °F 60.8 °F 69% 29.80 in 10.0 mi Variable 4.6 mph - N/A   Mostly Cloudy
12:55 PM 73.4 °F 60.8 °F 65% 29.79 in 10.0 mi Variable 4.6 mph 11.5 mph N/A   Mostly Cloudy
1:15 PM 71.6 °F 59.0 °F 64% 29.77 in 10.0 mi Variable 3.5 mph - N/A   Scattered Clouds
1:35 PM 73.4 °F 60.8 °F 65% 29.76 in 10.0 mi Calm Calm - N/A   Clear
1:55 PM 73.4 °F 59.0 °F 61% 29.76 in 10.0 mi Calm Calm - N/A   Clear
2:15 PM 75.2 °F 59.0 °F 57% 29.75 in 10.0 mi Calm Calm - N/A   Clear
2:35 PM 75.2 °F 59.0 °F 57% 29.75 in 10.0 mi Variable 4.6 mph - N/A   Clear
2:55 PM 77.0 °F 59.0 °F 54% 29.76 in 10.0 mi Calm Calm - N/A   Clear
3:15 PM 75.2 °F 59.0 °F 57% 29.76 in 10.0 mi Calm Calm - N/A   Mostly Cloudy
3:35 PM 73.4 °F 60.8 °F 65% 29.77 in 10.0 mi North 5.8 mph - N/A   Overcast
3:55 PM 73.4 °F 60.8 °F 65% 29.77 in 10.0 mi NE 3.5 mph - N/A   Overcast
4:15 PM 73.4 °F 60.8 °F 65% 29.78 in 10.0 mi NE 3.5 mph - N/A   Overcast
4:35 PM 75.2 °F 60.8 °F 61% 29.77 in 10.0 mi NNE 4.6 mph - N/A   Overcast
4:55 PM 75.2 °F 60.8 °F 61% 29.77 in 10.0 mi NNE 6.9 mph - N/A   Overcast
5:15 PM 75.2 °F 60.8 °F 61% 29.78 in 10.0 mi NNE 5.8 mph - N/A   Mostly Cloudy
5:35 PM 75.2 °F 59.0 °F 57% 29.77 in 10.0 mi NNE 8.1 mph - N/A   Scattered Clouds
5:55 PM 73.4 °F 59.0 °F 61% 29.77 in 10.0 mi NE 5.8 mph 12.7 mph N/A   Clear
6:15 PM 73.4 °F 59.0 °F 61% 29.77 in 10.0 mi NE 6.9 mph - N/A   Mostly Cloudy
6:35 PM 73.4 °F 59.0 °F 61% 29.77 in 10.0 mi NE 4.6 mph - N/A   Overcast
6:55 PM 73.4 °F 59.0 °F 61% 29.78 in 10.0 mi NE 5.8 mph - N/A   Overcast
7:15 PM 71.6 °F 59.0 °F 64% 29.78 in 10.0 mi NE 6.9 mph - N/A   Overcast
7:35 PM 71.6 °F 59.0 °F 64% 29.79 in 10.0 mi NE 6.9 mph - N/A   Overcast
7:55 PM 71.6 °F 59.0 °F 64% 29.79 in 10.0 mi NE 10.4 mph - N/A   Overcast
8:15 PM 69.8 °F 60.8 °F 73% 29.80 in 10.0 mi NE 11.5 mph - N/A   Overcast
8:35 PM 68.0 °F 60.8 °F 78% 29.81 in 10.0 mi NE 8.1 mph 16.1 mph N/A   Mostly Cloudy
8:55 PM 66.2 °F 60.8 °F 83% 29.81 in 10.0 mi ENE 10.4 mph - N/A   Clear
9:15 PM 66.2 °F 60.8 °F 83% 29.81 in 10.0 mi ENE 9.2 mph 16.1 mph N/A   Partly Cloudy
9:35 PM 66.2 °F 60.8 °F 83% 29.81 in 10.0 mi East 8.1 mph 13.8 mph N/A   Scattered Clouds
9:55 PM 64.4 °F 60.8 °F 88% 29.81 in 10.0 mi East 8.1 mph - N/A   Clear
10:15 PM 64.4 °F 60.8 °F 88% 29.81 in 10.0 mi East 6.9 mph - N/A   Scattered Clouds
10:35 PM 64.4 °F 60.8 °F 88% 29.80 in 10.0 mi East 8.1 mph - N/A   Mostly Cloudy
11:35 PM 66.2 °F 60.8 °F 83% 29.78 in 10.0 mi East 9.2 mph 15.0 mph N/A   Overcast
11:55 PM 66.2 °F 60.8 °F 83% 29.77 in 10.0 mi NNE 9.2 mph 16.1 mph N/A   Mostly Cloudy